This is the latest recevied weather packets stored in our database for station/object N8AMF. If no packets are shown the sender has not sent any weather packets the latest 10 day(s).
| Time | Temp. | Humidity | Pressure | Rain* | Wind** | Luminosity | Snow |
|---|---|---|---|---|---|---|---|
| 1777813923 | 8.89° C | 53% | 1015.6 hPa | 0 mm | - | 389 W/m² | - |
| 1777813620 | 8.33° C | 54% | 1015.7 hPa | 0 mm | - | 205 W/m² | - |
| 1777813318 | 8.33° C | 57% | 1015.8 hPa | 0 mm | - | 265 W/m² | - |
| 1777813015 | 7.78° C | 58% | 1015.7 hPa | 0 mm | - | 114 W/m² | - |
| 1777812713 | 7.78° C | 59% | 1015.8 hPa | 0 mm | - | 96 W/m² | - |
| 1777812409 | 7.22° C | 58% | 1015.9 hPa | 0 mm | - | 81 W/m² | - |
| 1777812108 | 7.22° C | 59% | 1015.8 hPa | 0 mm | - | 71 W/m² | - |
| 1777811806 | 6.67° C | 61% | 1015.8 hPa | 0 mm | - | 69 W/m² | - |
| 1777811503 | 6.67° C | 63% | 1015.7 hPa | 0 mm | - | 68 W/m² | - |
| 1777811198 | 6.11° C | 65% | 1015.7 hPa | 0 mm | - | 88 W/m² | - |
| 1777810896 | 6.11° C | 66% | 1015.9 hPa | 0 mm | - | 64 W/m² | - |
| 1777810592 | 5.56° C | 70% | 1015.7 hPa | 0 mm | - | 68 W/m² | - |
| 1777810290 | 5° C | 71% | 1015.7 hPa | 0 mm | - | 80 W/m² | - |
| 1777809985 | 5° C | 72% | 1015.7 hPa | 0 mm | - | 78 W/m² | - |
| 1777809683 | 5° C | 71% | 1015.6 hPa | 0 mm | - | 56 W/m² | - |
| 1777809381 | 4.44° C | 72% | 1015.6 hPa | 0 mm | - | 56 W/m² | - |
| 1777809078 | 4.44° C | 73% | 1015.6 hPa | 0 mm | - | 52 W/m² | - |
| 1777808776 | 3.89° C | 73% | 1015.6 hPa | 0 mm | - | 52 W/m² | - |
| 1777808472 | 3.89° C | 73% | 1015.8 hPa | 0 mm | - | 48 W/m² | - |
| 1777808170 | 3.89° C | 73% | 1015.8 hPa | 0 mm | - | 49 W/m² | - |
| 1777807868 | 3.89° C | 73% | 1015.5 hPa | 0 mm | - | 44 W/m² | - |
| 1777807566 | 3.33° C | 74% | 1015.6 hPa | 0 mm | - | 41 W/m² | - |
| 1777807262 | 3.33° C | 75% | 1015.6 hPa | 0 mm | - | 37 W/m² | - |
| 1777806959 | 2.78° C | 77% | 1015.5 hPa | 0 mm | - | 34 W/m² | - |
| 1777806655 | 2.78° C | 77% | 1015.5 hPa | 0 mm | - | 31 W/m² | - |
* Rain latest hour (hover to see other rain measurements)
** Current wind speed in m/s (hover to see current wind gust speed)